Weather in Volochek

Russia / Pskov Oblast     57°01′08″N   29°02′36″E
temp.,
°C
wind,
m/s
gust,
m/s
humid.,
%
clouds,
%
prec.,
mm/h
press.,
hPa
HPBL,
m
8 may, sat
sat800:00+4ne2596100 5.4 1004565
03:00+4wnw1698100 11.1 1004641
06:00+4wsw2697100 0.4 1005239
09:00+4wnw479495 0.6 1007687
12:00+5wnw477498 0.2 10081126
15:00+7wnw5856100 0.3 10091650
18:00+7wnw586274 0.1 10101305
21:00+4wnw388488 0.2 1012331
9 may, sun
sun900:00+1w279510 0.0 1013136
03:000wnw311880 0.0 1015278
06:000w210900 0.0 1017280
09:00+7wnw47595 0.0 1019740
12:00+11w45425 0.0 10201646
15:00+12w353783 0.0 10201980
18:00+13sw364472 0.0 10202260
21:00+6s3107578 0.0 1022203
10 may, mon
mon1000:00+6ssw4127296 0.0 1022371
03:00+7s31175100 0.1 1022375
06:00+8ssw5146964 0.0 1022569
09:00+10ssw41168100 0.0 1023546
12:00+15ssw5958100 0.0 1024710
15:00+19ssw584910 0.0 10231401
18:00+18ssw4759100 0.0 10241230
21:00+12s278499 0.0 1025134
11 may, tue
tue1100:00+12s4137899 0.0 1026402
03:00+10s3118588 0.0 1026297
06:00+9sse412808 0.0 1026328
09:00+14s5105889 0.0 1027623
12:00+18s584344 0.0 10261202
15:00+20s57407 0.0 10251360
18:00+19sse475266 0.0 10241216
21:00+13se38795 0.0 1024189
12 may, wed
wed1200:00+10se28875 0.0 1024167
03:00+9se29915 0.0 1025185
06:00+9se27865 0.0 1024157
09:00+16se25620 0.0 1024468
12:00+20ese45510 0.0 10221165
15:00+22ese47460 0.0 10211648
18:00+22ese385490 0.0 10201882
21:00+14se269154 0.1 1020125